Location: Kitchener-Waterloo
(43.4500°N, 80.5000°W)
Time: 02:01:10
(UTC-04:00)

Amateur Radio Satellites - All Passes

Search period start: 29 April 2016 01:31
Search period end: 30 April 2016 01:31
Location: Kitchener-Waterloo, 43.4500°N, 80.5000°W

Satellite Date Start Highest point End Downlink Frequencies (MHz)
Time Altitude Azimuth
BEESAT 29 Apr 01:32:34 01:35:49 19° 62° (ENE) 01:39:04 436.000
BUGSAT 1 29 Apr 01:36:34 01:40:49 81° 284° (WNW) 01:44:59 437.445
UKube-1 29 Apr 01:37:35 01:39:59 15° 269° (W) 01:42:24 .
Cosmos 2499 29 Apr 01:48:03 01:54:34 40° 88° (E) 02:01:03 435.465 / 435.565
JAS-2 29 Apr 01:48:29 01:55:42 42° 96° (E) 02:03:01 435.910
CUSAT 1 29 Apr 02:05:49 02:11:29 28° 69° (ENE) 02:17:54 437.405
QB50P2 29 Apr 02:05:59 02:08:56 19° 296° (WNW) 02:11:53 145.880/145.840
POLYITAN 1 29 Apr 02:08:06 02:11:01 18° 296° (WNW) 02:13:56 437.675
DANDE 29 Apr 02:09:06 02:12:02 13° 65° (ENE) 02:15:13 436.750
DUCHIFAT 1 29 Apr 02:12:03 02:14:58 18° 296° (WNW) 02:17:52 145.980
POPSAT HIP 1 29 Apr 02:12:04 02:14:52 17° 296° (WNW) 02:17:39 437.405
O/OREOS (USA 219) 29 Apr 02:13:57 02:18:31 88° 255° (WSW) 02:23:01 437.305
QB50P1 29 Apr 02:15:57 02:18:30 16° 297° (WNW) 02:21:03 145.935-145.965
SPROUT 29 Apr 02:17:02 02:18:29 11° 271° (W) 02:19:56 437.525
RS-15 29 Apr 02:21:52 02:31:59 32° 337° (NNW) 02:42:33 29.354- 29.394
ITUPSAT 1 29 Apr 02:22:52 02:27:29 53° 71° (ENE) 02:32:08 437.325
GONETS M04 29 Apr 02:27:39 02:36:26 66° 282° (WNW) 02:45:15
SWISSCUBE 29 Apr 02:34:37 02:39:22 78° 75° (ENE) 02:44:08 437.505
PCSat 29 Apr 02:36:13 02:41:40 79° 242° (WSW) 02:47:05 145.827
Oscar 19 29 Apr 02:36:46 02:41:52 53° 100° (E) 02:46:56 437.125/150
AIST 1 29 Apr 02:55:41 02:58:41 18° 290° (WNW) 03:01:42
BEESAT 29 Apr 03:08:32 03:13:11 54° 259° (W) 03:17:53 436.000
KKS-1 29 Apr 03:12:07 03:15:38 23° 65° (ENE) 03:19:11 437.445
AO-7 29 Apr 03:30:32 03:34:46 15° 87° (E) 03:38:58 29.400- 29.500
BEESAT 2 29 Apr 03:32:19 03:33:10 11° 34° (NNE) 03:34:00 435.950
BEESAT 3 29 Apr 03:32:31 03:34:51 15° 39° (NE) 03:37:09 437.485
JAS-2 29 Apr 03:33:29 03:40:40 47° 293° (WNW) 03:48:05 435.910
Gurwin Techsat 1B 29 Apr 03:34:42 03:40:02 75° 102° (ESE) 03:45:20 435.225
STARS 29 Apr 03:40:47 03:44:20 24° 66° (ENE) 03:47:55 437.465
Cosmos 2499 29 Apr 03:41:14 03:47:41 36° 288° (WNW) 03:54:10 435.465 / 435.565
ITAMSAT 1 29 Apr 03:45:37 03:50:29 40° 98° (E) 03:55:20 435.822/435.867
CUSAT 1 29 Apr 03:47:13 03:53:55 65° 264° (W) 04:01:45 437.405
DANDE 29 Apr 03:49:25 03:55:24 75° 79° (E) 04:03:02 436.750
ITUPSAT 1 29 Apr 04:02:28 04:05:39 18° 268° (W) 04:08:49 437.325
SWISSCUBE 29 Apr 04:16:03 04:17:43 12° 271° (W) 04:19:24 437.505
Oscar 19 29 Apr 04:16:55 04:20:49 22° 298° (WNW) 04:24:41 437.125/150
MOZHAYETS 4 29 Apr 04:18:35 04:23:07 66° 74° (ENE) 04:27:40
PCSat 29 Apr 04:23:05 04:24:07 11° 259° (W) 04:25:11 145.827
GONETS M04 29 Apr 04:30:55 04:35:16 14° 305° (NW) 04:39:39
RS-15 29 Apr 04:39:38 04:49:30 28° 12° (NNE) 04:59:36 29.354- 29.394
KKS-1 29 Apr 04:47:51 04:52:00 37° 262° (W) 04:56:11 437.445
YUBILEINY 29 Apr 04:58:45 05:02:48 14° 54° (NE) 05:06:50 435.215
BEESAT 2 29 Apr 05:07:52 05:11:51 62° 54° (NE) 05:15:47 435.950
BEESAT 3 29 Apr 05:09:05 05:13:03 76° 237° (WSW) 05:16:58 437.485
Gurwin Techsat 1B 29 Apr 05:16:07 05:19:22 17° 301° (WNW) 05:22:36 435.225
STARS 29 Apr 05:16:29 05:20:32 35° 263° (W) 05:24:37 437.465
AO-7 29 Apr 05:20:30 05:28:52 75° 107° (ESE) 05:37:12 29.400- 29.500
JAS-2 29 Apr 05:22:28 05:23:58 11° 313° (NW) 05:25:29 435.910
ITAMSAT 1 29 Apr 05:25:26 05:29:47 28° 295° (WNW) 05:34:07 435.822/435.867
CUSAT 1 29 Apr 05:32:42 05:35:10 12° 279° (W) 05:37:44 437.405
DANDE 29 Apr 05:33:31 05:37:58 21° 271° (W) 05:43:05 436.750
CUBESAT XI-V 29 Apr 05:51:45 05:56:18 69° 74° (ENE) 06:00:54 437.345
MOZHAYETS 4 29 Apr 05:58:37 06:00:45 13° 271° (W) 06:02:51
NOAA 18 29 Apr 06:01:48 06:02:27 10° 87° (E) 06:03:06 137.9125
AIST 2 29 Apr 06:04:22 06:07:43 23° 44° (NE) 06:11:02 435.215
HORYU 2 29 Apr 06:04:43 06:09:10 69° 103° (ESE) 06:13:33 437.375
BRITE-PL 29 Apr 06:14:30 06:16:48 12° 86° (E) 06:19:05 437.365/2234.400
CUTE-I 29 Apr 06:23:49 06:26:15 13° 89° (E) 06:28:40 437.470
LilacSat-2 29 Apr 06:44:40 06:46:53 15° 92° (E) 06:49:06 437.200
BEESAT 2 29 Apr 06:47:25 06:49:12 13° 251° (WSW) 06:50:57 435.950
YUBILEINY 29 Apr 06:52:58 07:01:38 65° 78° (ENE) 07:10:15 435.215
RS-15 29 Apr 06:53:41 07:05:38 54° 44° (NE) 07:17:40 29.354- 29.394
STRAND 1 29 Apr 07:03:27 07:08:09 38° 68° (ENE) 07:12:51 437.568
Cubesat XI-IV 29 Apr 07:05:03 07:09:47 32° 96° (E) 07:14:28 437.490
AO-7 29 Apr 07:14:12 07:20:54 28° 306° (NW) 07:27:38 29.400- 29.500
Cosmos 2504 29 Apr 07:18:10 07:24:03 24° 67° (ENE) 07:30:12 435.465 / 435.565
NOAA 15 29 Apr 07:18:17 07:23:35 63° 102° (ESE) 07:28:50 137.62
CUBESAT XI-V 29 Apr 07:32:13 07:34:10 13° 271° (W) 07:36:09 437.345
PRISM 29 Apr 07:35:21 07:37:37 15° 62° (ENE) 07:39:53 437.425
Cosmos 2491 29 Apr 07:35:34 07:44:07 58° 91° (E) 07:52:44 435.465 / 435.565
M-CUBED/EXP-1 PRIME 29 Apr 07:37:09 07:39:55 18° 96° (E) 07:42:32 437.505
NOAA 18 29 Apr 07:38:27 07:43:56 81° 104° (ESE) 07:49:23 137.9125
AIST 2 29 Apr 07:42:27 07:46:24 44° 242° (WSW) 07:50:19 435.215
HORYU 2 29 Apr 07:43:01 07:45:09 13° 300° (WNW) 07:47:17 437.375
GOMX 1 29 Apr 07:46:06 07:51:18 42° 96° (E) 07:56:20 467.674
BRITE-PL 29 Apr 07:50:17 07:55:59 85° 102° (ESE) 08:01:41 437.365/2234.400
SO-50 29 Apr 07:53:23 07:56:50 19° 110° (ESE) 08:00:19 436.795
AUBIESAT-1 29 Apr 07:59:09 08:02:30 25° 99° (E) 08:05:38 437.475
CUTE-I 29 Apr 08:01:36 08:06:56 82° 286° (WNW) 08:12:15 437.470
DOVE 4 29 Apr 08:03:50 08:08:26 30° 94° (E) 08:12:49 437.250
LilacSat-2 29 Apr 08:17:48 08:21:24 40° 288° (WNW) 08:24:57 437.200
HO-68 29 Apr 08:23:40 08:28:56 22° 91° (E) 08:34:10 435.675
STRAND 1 29 Apr 08:43:06 08:47:24 27° 265° (W) 08:51:43 437.568
Cubesat XI-IV 29 Apr 08:45:03 08:49:51 35° 293° (WNW) 08:54:38 437.490
CANX-2 29 Apr 08:50:21 08:53:59 27° 95° (E) 08:57:34 2200.000
YUBILEINY 29 Apr 08:50:44 08:57:45 29° 278° (W) 09:04:46 435.215
NOAA 15 29 Apr 08:59:09 09:02:53 20° 299° (WNW) 09:06:35 137.62
RS-15 29 Apr 09:06:33 09:18:19 56° 248° (WSW) 09:30:04 29.354- 29.394
PRISM 29 Apr 09:08:33 09:12:31 52° 259° (W) 09:16:32 437.425
AAUSAT CUBESAT 2 29 Apr 09:10:06 09:12:49 17° 92° (E) 09:15:31 437.432
Cosmos 2504 29 Apr 09:10:37 09:18:01 69° 266° (W) 09:25:57 435.465 / 435.565
M-CUBED/EXP-1 PRIME 29 Apr 09:10:51 09:14:42 38° 296° (WNW) 09:18:16 437.505
ISS 29 Apr 09:11:55 09:14:49 31° 138° (SE) 09:17:45 145.825
CINEMA 3 29 Apr 09:17:48 09:22:27 50° 99° (E) 09:26:50 145.822/145.860
NOAA 18 29 Apr 09:20:40 09:23:55 16° 303° (WNW) 09:27:09 137.9125
CUTE 1.7 + AOD 2 29 Apr 09:23:35 09:27:45 56° 100° (E) 09:31:53 437.475
GOMX 1 29 Apr 09:24:29 09:29:09 29° 294° (WNW) 09:33:44 467.674
BRITE-PL 29 Apr 09:30:19 09:33:43 16° 300° (WNW) 09:37:07 437.365/2234.400
SO-50 29 Apr 09:32:03 09:36:54 60° 308° (NW) 09:41:48 436.795
AUBIESAT-1 29 Apr 09:33:31 09:36:58 27° 299° (WNW) 09:40:11 437.475
Cosmos 2491 29 Apr 09:33:40 09:41:24 34° 292° (WNW) 09:49:16 435.465 / 435.565
ZACube-1 29 Apr 09:39:54 09:41:43 12° 89° (E) 09:43:31 437.345
DOVE 4 29 Apr 09:41:23 09:46:07 35° 292° (WNW) 09:50:40 437.250
CUTE-I 29 Apr 09:44:01 09:46:08 12° 304° (NW) 09:48:16 437.470
UNISAT 6 29 Apr 09:57:03 10:00:46 24° 66° (ENE) 10:04:28 437.425
SEEDS 29 Apr 09:58:25 10:02:36 81° 286° (WNW) 10:06:47 437.485
COMPASS 1 29 Apr 10:09:27 10:13:37 84° 281° (W) 10:17:46 437.405
HO-68 29 Apr 10:10:10 10:17:18 74° 289° (WNW) 10:24:25 435.675
TIGRISAT 29 Apr 10:15:28 10:19:41 34° 69° (ENE) 10:23:50 435.000
CANX-2 29 Apr 10:26:13 10:29:46 27° 292° (WNW) 10:33:19 2200.000
Oscar 11 29 Apr 10:28:29 10:32:42 50° 99° (E) 10:36:52 145.826/435.025
CUBEBUG 2 29 Apr 10:32:51 10:37:17 79° 284° (WNW) 10:41:31 437.445
UWE-3 29 Apr 10:34:06 10:38:26 75° 101° (ESE) 10:42:38 435.000/436.395/437.385
FUNcube-1 29 Apr 10:34:15 10:38:21 46° 99° (E) 10:42:20 145.935
NANOSAT C BR1 29 Apr 10:36:46 10:38:19 12° 61° (ENE) 10:39:53 145.865
ANTELSAT 29 Apr 10:38:22 10:42:59 60° 73° (ENE) 10:47:32 437.575/2403.000
GONETS M04 29 Apr 10:41:57 10:46:33 15° 55° (NE) 10:51:06
AAUSAT CUBESAT 2 29 Apr 10:44:36 10:48:30 42° 288° (WNW) 10:52:25 437.432
ISS 29 Apr 10:48:07 10:51:13 40° 335° (NNW) 10:54:21 145.825
CINEMA 3 29 Apr 10:55:52 10:59:09 19° 297° (WNW) 11:02:20 145.822/145.860
DELFI C3 29 Apr 10:56:24 11:00:17 49° 100° (E) 11:04:09 145.870
CUTE 1.7 + AOD 2 29 Apr 11:00:50 11:03:08 15° 297° (WNW) 11:05:27 437.475
Cosmos 2504 29 Apr 11:07:53 11:10:02 11° 285° (WNW) 11:12:13 435.465 / 435.565
ZACube-1 29 Apr 11:14:15 11:18:26 58° 287° (WNW) 11:22:32 437.345
SO-50 29 Apr 11:15:54 11:18:25 14° 329° (NNW) 11:20:55 436.795
HUMSAT D 29 Apr 11:17:13 11:21:02 36° 97° (E) 11:24:48 437.325/437.525
QB50P2 29 Apr 11:22:56 11:26:52 37° 70° (ENE) 11:30:52 145.880/145.840
AIST 1 29 Apr 11:24:03 11:26:01 13° 67° (ENE) 11:27:58
POLYITAN 1 29 Apr 11:25:00 11:28:59 38° 70° (ENE) 11:32:59 437.675
RS-15 29 Apr 11:25:44 11:27:48 11° 269° (W) 11:29:53 29.354- 29.394
DUCHIFAT 1 29 Apr 11:28:21 11:32:16 37° 70° (ENE) 11:36:13 145.980
POPSAT HIP 1 29 Apr 11:28:41 11:32:42 40° 71° (ENE) 11:36:44 437.405
QB50P1 29 Apr 11:32:15 11:36:20 45° 71° (ENE) 11:40:26 145.935-145.965
UNISAT 6 29 Apr 11:32:56 11:37:17 38° 262° (W) 11:41:37 437.425
Cosmos 2499 29 Apr 11:37:20 11:41:40 16° 61° (ENE) 11:46:09 435.465 / 435.565
TIGRISAT 29 Apr 11:52:27 11:56:22 26° 265° (W) 12:00:17 435.000
AISAT 29 Apr 11:53:03 11:55:29 14° 90° (E) 11:57:55 437.250
ESTCUBE 1 29 Apr 11:54:23 11:57:43 20° 93° (E) 12:01:02 437.505/2401.250
HO-68 29 Apr 11:59:48 12:03:51 16° 309° (NW) 12:07:54 435.675
JAS-2 29 Apr 12:04:12 12:08:13 19° 55° (NE) 12:12:33 435.910
Oscar 11 29 Apr 12:05:43 12:08:26 17° 296° (WNW) 12:11:08 145.826/435.025
NANOSAT C BR1 29 Apr 12:09:11 12:13:27 75° 257° (WSW) 12:17:45 145.865
FUNcube-1 29 Apr 12:11:31 12:14:13 17° 296° (WNW) 12:16:53 145.935
UWE-3 29 Apr 12:12:47 12:14:15 12° 300° (WNW) 12:15:43 435.000/436.395/437.385
ANTELSAT 29 Apr 12:17:24 12:20:02 15° 269° (W) 12:22:41 437.575/2403.000
Oscar 19 29 Apr 12:19:05 12:21:16 13° 57° (ENE) 12:23:28 437.125/150
SPROUT 29 Apr 12:25:25 12:26:21 11° 88° (E) 12:27:16 437.525
ISS 29 Apr 12:25:50 12:28:18 19° 356° (N) 12:30:47 145.825
BUGSAT 1 29 Apr 12:26:53 12:31:06 80° 73° (ENE) 12:35:22 437.445
DELFI C3 29 Apr 12:32:36 12:34:46 14° 296° (WNW) 12:36:57 145.870
GONETS M04 29 Apr 12:36:31 12:45:18 69° 79° (ENE) 12:53:57
CUBEBUG 1 29 Apr 12:39:54 12:44:08 41° 98° (E) 12:48:19 437.445
HUMSAT D 29 Apr 12:53:29 12:56:25 19° 294° (WNW) 12:59:20 437.325/437.525
VELOX 1 29 Apr 12:56:20 13:00:48 63° 102° (ESE) 13:05:13 145.980
QB50P2 29 Apr 12:59:36 13:02:49 20° 267° (W) 13:06:02 145.880/145.840
AIST 1 29 Apr 12:59:42 13:04:05 64° 265° (W) 13:08:27
POLYITAN 1 29 Apr 13:01:43 13:04:54 20° 267° (W) 13:08:07 437.675
PHONESAT 2.4 29 Apr 13:01:48 13:04:35 29° 163° (SSE) 13:07:24 2401.200-2431.200
DUCHIFAT 1 29 Apr 13:04:54 13:08:06 20° 267° (W) 13:11:18 145.980
POPSAT HIP 1 29 Apr 13:05:36 13:08:39 19° 267° (W) 13:11:44 437.405
DX 1 29 Apr 13:07:12 13:11:37 73° 103° (ESE) 13:15:59 434.975-435.025
QB50P1 29 Apr 13:09:31 13:12:19 17° 268° (W) 13:15:10 145.935-145.965
AO-85 29 Apr 13:13:59 13:17:36 18° 109° (ESE) 13:21:14 145.980
TISAT 1 29 Apr 13:14:23 13:15:20 11° 89° (E) 13:16:19 437.305
50 SAT 29 Apr 13:15:35 13:19:10 57° 286° (WNW) 13:22:45 437.505
Gurwin Techsat 1B 29 Apr 13:19:13 13:22:52 19° 61° (ENE) 13:26:31 435.225
UKube-1 29 Apr 13:21:08 13:25:30 85° 104° (ESE) 13:29:50 .
AISAT 29 Apr 13:27:56 13:32:21 58° 287° (WNW) 13:36:43 437.250
Cosmos 2499 29 Apr 13:28:22 13:35:59 79° 81° (E) 13:44:12 435.465 / 435.565
ESTCUBE 1 29 Apr 13:30:26 13:34:42 42° 289° (WNW) 13:38:58 437.505/2401.250
ITAMSAT 1 29 Apr 13:30:52 13:31:13 10° 55° (NE) 13:31:35 435.822/435.867
JAS-2 29 Apr 13:46:31 13:52:19 82° 257° (WSW) 13:58:57 435.910
Oscar 19 29 Apr 13:54:37 13:59:47 86° 74° (ENE) 14:05:01 437.125/150
SPROUT 29 Apr 13:58:29 14:02:48 72° 284° (WNW) 14:07:04 437.525
ISS 29 Apr 14:02:43 14:05:32 25° 16° (NNE) 14:08:20 145.825
CUBEBUG 1 29 Apr 14:16:50 14:20:08 21° 295° (WNW) 14:23:26 437.445
ITUPSAT 1 29 Apr 14:24:12 14:26:05 12° 89° (E) 14:27:57 437.325
AO-7 29 Apr 14:30:17 14:36:51 27° 53° (NE) 14:43:26 29.400- 29.500
VELOX 1 29 Apr 14:34:16 14:36:45 15° 299° (WNW) 14:39:15 145.980
GONETS M04 29 Apr 14:34:27 14:41:19 27° 279° (W) 14:48:10
SWISSCUBE 29 Apr 14:34:39 14:37:54 18° 92° (E) 14:41:07 437.505
PHONESAT 2.4 29 Apr 14:38:07 14:41:12 49° 180° (S) 14:44:17 2401.200-2431.200
DX 1 29 Apr 14:45:18 14:47:13 13° 300° (WNW) 14:49:07 434.975-435.025
TISAT 1 29 Apr 14:47:15 14:51:29 70° 286° (WNW) 14:55:40 437.305
AO-85 29 Apr 14:52:07 14:57:35 74° 306° (NW) 15:03:00 145.980
Gurwin Techsat 1B 29 Apr 14:57:03 15:02:19 64° 259° (WSW) 15:07:37 435.225
UKube-1 29 Apr 14:59:47 15:00:52 11° 301° (WNW) 15:01:58 .
ITAMSAT 1 29 Apr 15:04:36 15:09:44 69° 72° (ENE) 15:14:54 435.822/435.867
BEESAT 29 Apr 15:07:32 15:11:52 34° 97° (E) 15:16:11 436.000
Cosmos 2499 29 Apr 15:23:01 15:28:17 21° 279° (W) 15:33:50 435.465 / 435.565
JAS-2 29 Apr 15:36:36 15:38:41 12° 278° (W) 15:40:49 435.910
Oscar 19 29 Apr 15:37:54 15:39:46 12° 272° (W) 15:41:41 437.125/150
ISS 29 Apr 15:39:00 15:42:16 76° 215° (SW) 15:45:31 145.825
PCSat 29 Apr 15:40:48 15:41:34 10° 101° (E) 15:42:20 145.827
ITUPSAT 1 29 Apr 15:59:41 16:04:27 75° 286° (WNW) 16:09:13 437.325
SWISSCUBE 29 Apr 16:11:22 16:15:59 51° 289° (WNW) 16:20:35 437.505
MOZHAYETS 4 29 Apr 16:13:56 16:16:22 14° 90° (E) 16:18:46
PHONESAT 2.4 29 Apr 16:14:57 16:17:49 31° 196° (SSW) 16:20:41 2401.200-2431.200
AO-7 29 Apr 16:20:33 16:28:51 78° 253° (WSW) 16:37:11 29.400- 29.500
SO-50 29 Apr 16:22:36 16:26:39 26° 42° (NE) 16:30:35 436.795
O/OREOS (USA 219) 29 Apr 16:26:58 16:31:35 88° 113° (ESE) 16:36:13 437.305
AO-85 29 Apr 16:35:23 16:38:59 18° 325° (NW) 16:42:33 145.980
KKS-1 29 Apr 16:37:23 16:41:33 37° 98° (E) 16:45:41 437.445
BEESAT 29 Apr 16:45:31 16:49:32 28° 294° (WNW) 16:53:32 436.000
ITAMSAT 1 29 Apr 16:46:43 16:49:42 15° 270° (W) 16:52:42 435.822/435.867
CUSAT 1 29 Apr 16:54:15 16:57:22 46° 286° (WNW) 17:01:22 437.405
NOAA 15 29 Apr 17:02:29 17:05:40 16° 59° (ENE) 17:08:52 137.62
DANDE 29 Apr 17:03:01 17:05:43 70° 98° (E) 17:08:58 436.750
HORYU 2 29 Apr 17:03:30 17:07:59 74° 74° (ENE) 17:12:27 437.375
STARS 29 Apr 17:04:25 17:08:32 37° 98° (E) 17:12:37 437.465
PCSat 29 Apr 17:18:36 17:24:00 78° 118° (ESE) 17:29:28 145.827
BRITE-PL 29 Apr 17:26:44 17:29:13 14° 58° (ENE) 17:31:48 437.365/2234.400
NOAA 18 29 Apr 17:26:51 17:31:17 25° 62° (ENE) 17:35:43 137.9125
LilacSat-2 29 Apr 17:30:08 17:30:23 10° 62° (ENE) 17:30:39 437.200
Cosmos 2491 29 Apr 17:44:46 17:52:23 31° 67° (ENE) 17:59:54 435.465 / 435.565
CUTE-I 29 Apr 17:45:57 17:50:17 26° 64° (ENE) 17:54:36 437.470
CUBESAT XI-V 29 Apr 17:48:16 17:51:10 16° 90° (E) 17:54:04 437.345
MOZHAYETS 4 29 Apr 17:49:25 17:53:55 60° 287° (WNW) 17:58:25
SO-50 29 Apr 18:02:50 18:07:22 47° 242° (WSW) 18:11:44 436.795
YUBILEINY 29 Apr 18:04:37 18:08:22 14° 73° (ENE) 18:12:06 435.215
O/OREOS (USA 219) 29 Apr 18:09:33 18:11:40 13° 312° (NW) 18:13:47 437.305
KKS-1 29 Apr 18:14:23 18:17:54 23° 295° (WNW) 18:21:25 437.445
AO-7 29 Apr 18:18:28 18:22:54 15° 272° (W) 18:27:22 29.400- 29.500
M-CUBED/EXP-1 PRIME 29 Apr 18:23:12 18:27:26 34° 63° (ENE) 18:31:39 437.505
Cubesat XI-IV 29 Apr 18:28:01 18:33:15 58° 71° (ENE) 18:38:29 437.490
NOAA 15 29 Apr 18:39:34 18:44:49 75° 257° (WSW) 18:50:08 137.62
STARS 29 Apr 18:41:15 18:44:41 22° 295° (WNW) 18:48:05 437.465
HORYU 2 29 Apr 18:43:39 18:45:02 11° 271° (W) 18:46:25 437.375
AUBIESAT-1 29 Apr 18:44:57 18:49:23 45° 66° (ENE) 18:53:47 437.475
HO-68 29 Apr 18:54:40 18:59:36 21° 54° (NE) 19:04:33 435.675
GOMX 1 29 Apr 18:54:53 18:59:35 46° 70° (ENE) 19:04:36 467.674
LilacSat-2 29 Apr 19:00:14 19:04:07 73° 258° (WSW) 19:08:01 437.200
BRITE-PL 29 Apr 19:02:12 19:06:54 79° 258° (WSW) 19:12:03 437.365/2234.400
BEESAT 3 29 Apr 19:02:56 19:04:45 13° 110° (ESE) 19:06:36 437.485
PCSat 29 Apr 19:04:00 19:08:01 21° 318° (NW) 19:12:05 145.827
NOAA 18 29 Apr 19:06:17 19:11:38 49° 260° (W) 19:16:59 137.9125
DOVE 4 29 Apr 19:09:47 19:14:19 34° 68° (ENE) 19:19:02 437.250
STRAND 1 29 Apr 19:15:03 19:16:33 11° 88° (E) 19:18:02 437.568
CUBESAT XI-V 29 Apr 19:24:18 19:28:54 56° 287° (WNW) 19:33:29 437.345
CUTE-I 29 Apr 19:25:00 19:30:05 45° 261° (W) 19:35:11 437.470
Cosmos 2491 29 Apr 19:41:09 19:49:50 63° 268° (W) 19:58:25 435.465 / 435.565
CANX-2 29 Apr 19:44:28 19:47:50 23° 67° (ENE) 19:51:11 2200.000
YUBILEINY 29 Apr 19:54:48 20:03:28 71° 94° (E) 20:12:08 435.215
M-CUBED/EXP-1 PRIME 29 Apr 19:57:47 20:01:55 30° 259° (W) 20:06:05 437.505
CUBEBUG 2 29 Apr 19:58:05 19:59:58 12° 60° (ENE) 20:01:51 437.445
Cosmos 2504 29 Apr 20:01:00 20:05:19 17° 79° (E) 20:09:33 435.465 / 435.565
AAUSAT CUBESAT 2 29 Apr 20:02:22 20:04:30 14° 63° (ENE) 20:06:39 437.432
Cubesat XI-IV 29 Apr 20:09:58 20:13:41 19° 268° (W) 20:17:26 437.490
CUTE 1.7 + AOD 2 29 Apr 20:17:11 20:21:12 45° 72° (ENE) 20:25:14 437.475
CINEMA 3 29 Apr 20:19:35 20:24:26 54° 72° (ENE) 20:29:21 145.822/145.860
AUBIESAT-1 29 Apr 20:20:25 20:24:00 22° 262° (W) 20:27:34 437.475
GOMX 1 29 Apr 20:34:05 20:37:55 22° 269° (W) 20:41:59 467.674
ZACube-1 29 Apr 20:36:49 20:39:10 14° 62° (ENE) 20:41:29 437.345
BEESAT 3 29 Apr 20:38:05 20:41:59 60° 307° (NW) 20:45:54 437.485
BEESAT 2 29 Apr 20:38:13 20:42:11 81° 124° (SE) 20:46:13 435.950
HO-68 29 Apr 20:39:14 20:46:26 88° 253° (WSW) 20:53:38 435.675
DOVE 4 29 Apr 20:47:32 20:51:58 31° 266° (W) 20:56:38 437.250
PRISM 29 Apr 20:49:38 20:52:36 19° 94° (E) 20:55:33 437.425
SEEDS 29 Apr 20:50:52 20:55:02 79° 78° (ENE) 20:59:15 437.485
STRAND 1 29 Apr 20:51:16 20:56:25 88° 281° (W) 21:01:31 437.568
COMPASS 1 29 Apr 21:00:58 21:05:06 74° 76° (ENE) 21:09:13 437.405
CANX-2 29 Apr 21:19:45 21:23:32 32° 263° (W) 21:27:21 2200.000
RS-15 29 Apr 21:22:03 21:30:18 24° 100° (E) 21:38:49 29.354- 29.394
Oscar 11 29 Apr 21:24:08 21:28:14 44° 72° (ENE) 21:32:21 145.826/435.025
FUNcube-1 29 Apr 21:30:20 21:34:38 43° 71° (ENE) 21:38:53 145.935
CUBEBUG 2 29 Apr 21:31:08 21:35:55 86° 257° (WSW) 21:40:39 437.445
UWE-3 29 Apr 21:31:24 21:36:02 70° 75° (ENE) 21:40:38 435.000/436.395/437.385
AAUSAT CUBESAT 2 29 Apr 21:35:31 21:39:33 55° 260° (W) 21:43:37 437.432
AIST 2 29 Apr 21:41:07 21:44:37 27° 115° (ESE) 21:48:10 435.215
Cosmos 2491 29 Apr 21:42:19 21:44:43 11° 289° (WNW) 21:47:07 435.465 / 435.565
DELFI C3 29 Apr 21:43:36 21:47:10 33° 70° (ENE) 21:50:43 145.870
AO-85 29 Apr 21:43:41 21:47:34 22° 39° (NE) 21:51:12 145.980
Cosmos 2504 29 Apr 21:50:20 21:57:42 83° 279° (W) 22:04:54 435.465 / 435.565
YUBILEINY 29 Apr 21:53:59 22:01:04 27° 295° (WNW) 22:08:12 435.215
CUTE 1.7 + AOD 2 29 Apr 21:54:36 21:57:17 16° 268° (W) 21:59:58 437.475
CINEMA 3 29 Apr 21:58:20 22:01:52 19° 269° (W) 22:05:26 145.822/145.860
HUMSAT D 29 Apr 22:09:31 22:13:15 31° 69° (ENE) 22:16:58 437.325/437.525
ZACube-1 29 Apr 22:10:22 22:14:55 68° 259° (WSW) 22:19:25 437.345
BEESAT 2 29 Apr 22:18:21 22:20:35 14° 322° (NW) 22:22:51 435.950
BEESAT 3 29 Apr 22:20:03 22:20:31 10° 326° (NNW) 22:20:59 437.485
PRISM 29 Apr 22:24:11 22:28:03 38° 290° (WNW) 22:31:56 437.425
HO-68 29 Apr 22:30:53 22:35:04 16° 272° (W) 22:39:17 435.675
ANTELSAT 29 Apr 22:31:54 22:32:48 11° 88° (E) 22:33:42 437.575/2403.000
STRAND 1 29 Apr 22:32:38 22:34:49 13° 303° (WNW) 22:36:59 437.568
AISAT 29 Apr 22:51:47 22:54:28 16° 62° (ENE) 22:57:10 437.250
ESTCUBE 1 29 Apr 22:55:12 22:58:35 22° 65° (ENE) 23:02:00 437.505/2401.250
Oscar 11 29 Apr 23:01:42 23:04:35 17° 268° (W) 23:07:29 145.826/435.025
FUNcube-1 29 Apr 23:07:47 23:11:03 19° 267° (W) 23:14:18 145.935
UWE-3 29 Apr 23:10:51 23:12:56 13° 271° (W) 23:15:01 435.000/436.395/437.385
AIST 2 29 Apr 23:19:17 23:23:01 32° 312° (NW) 23:26:48 435.215
DELFI C3 29 Apr 23:19:17 23:22:08 19° 267° (W) 23:25:00 145.870
SPROUT 29 Apr 23:20:43 23:21:47 11° 60° (ENE) 23:22:52 437.525
UNISAT 6 29 Apr 23:23:27 23:27:35 39° 98° (E) 23:31:36 437.425
AO-85 29 Apr 23:23:46 23:28:31 60° 241° (WSW) 23:32:49 145.980
RS-15 29 Apr 23:29:40 23:40:59 89° 121° (ESE) 23:53:01 29.354- 29.394
CUBEBUG 1 29 Apr 23:36:50 23:40:54 39° 70° (ENE) 23:45:01 437.445
TIGRISAT 29 Apr 23:42:06 23:46:26 60° 101° (E) 23:50:39 435.000
HUMSAT D 29 Apr 23:45:27 23:48:53 24° 265° (W) 23:52:19 437.325/437.525
GONETS M04 29 Apr 23:47:28 23:51:53 15° 74° (ENE) 23:56:17
Cosmos 2504 29 Apr 23:48:22 23:52:16 15° 300° (WNW) 23:56:11 435.465 / 435.565
NANOSAT C BR1 29 Apr 23:53:44 23:56:21 16° 91° (E) 23:58:59 145.865
VELOX 1 29 Apr 23:54:29 23:58:51 63° 73° (ENE) 00:03:16 145.980
50 SAT 29 Apr 23:55:00 23:58:39 74° 76° (ENE) 00:02:19 437.505
DX 1 30 Apr 00:03:30 00:07:50 72° 74° (ENE) 00:12:13 434.975-435.025
ANTELSAT 30 Apr 00:05:41 00:10:04 72° 285° (WNW) 00:14:19 437.575/2403.000
TISAT 1 30 Apr 00:07:50 00:08:49 11° 60° (ENE) 00:09:47 437.305
BUGSAT 1 30 Apr 00:10:18 00:11:18 11° 89° (E) 00:12:18 437.445
UKube-1 30 Apr 00:16:26 00:20:45 82° 77° (ENE) 00:25:06 .
PCSat 30 Apr 00:23:08 00:26:32 16° 38° (NE) 00:29:55 145.827
AISAT 30 Apr 00:26:08 00:30:29 57° 259° (W) 00:34:54 437.250
ESTCUBE 1 30 Apr 00:30:57 00:35:10 40° 262° (W) 00:39:23 437.505/2401.250
QB50P2 30 Apr 00:42:06 00:46:19 59° 101° (ESE) 00:50:29 145.880/145.840
POLYITAN 1 30 Apr 00:44:12 00:48:25 60° 101° (E) 00:52:35 437.675
DUCHIFAT 1 30 Apr 00:46:38 00:50:49 57° 101° (E) 00:54:57 145.980
POPSAT HIP 1 30 Apr 00:47:45 00:52:00 64° 102° (ESE) 00:56:11 437.405
QB50P1 30 Apr 00:51:19 00:55:35 72° 103° (ESE) 00:59:47 145.935-145.965
SPROUT 30 Apr 00:52:46 00:57:05 83° 259° (W) 01:01:26 437.525
JAS-2 30 Apr 00:55:07 01:00:05 18° 87° (E) 01:05:03 435.910
O/OREOS (USA 219) 30 Apr 00:57:15 01:00:56 23° 55° (NE) 01:04:34 437.305
UNISAT 6 30 Apr 01:00:49 01:04:02 20° 295° (WNW) 01:07:12 437.425
CUBEBUG 1 30 Apr 01:14:06 01:17:20 20° 267° (W) 01:20:36 437.445
TIGRISAT 30 Apr 01:20:17 01:22:37 14° 298° (WNW) 01:24:56 435.000
